Year,Month,Day,Hour,Minute,Value (Times are PST for temperature in C)
2018,04,27,00,00,12.70
2018,04,27,00,01,12.60
2018,04,27,00,02,12.60
2018,04,27,00,03,12.60
2018,04,27,00,04,12.60
2018,04,27,00,05,12.60
2018,04,27,00,06,12.60
2018,04,27,00,07,12.60
2018,04,27,00,08,12.60
2018,04,27,00,09,12.70
2018,04,27,00,10,12.70
2018,04,27,00,11,12.70
2018,04,27,00,12,12.70
2018,04,27,00,13,12.60
2018,04,27,00,14,12.60
2018,04,27,00,15,12.60
2018,04,27,00,16,12.60
2018,04,27,00,17,12.60
2018,04,27,00,18,12.60
2018,04,27,00,19,12.50
2018,04,27,00,20,12.50
2018,04,27,00,21,12.50
2018,04,27,00,22,12.50
2018,04,27,00,23,12.60
2018,04,27,00,24,12.60
2018,04,27,00,25,12.60
2018,04,27,00,26,12.60
2018,04,27,00,27,12.60
2018,04,27,00,28,12.60
2018,04,27,00,29,12.70
2018,04,27,00,30,12.70
2018,04,27,00,31,12.70
2018,04,27,00,32,12.70
2018,04,27,00,33,12.70
2018,04,27,00,34,12.70
2018,04,27,00,35,12.80
2018,04,27,00,36,12.80
2018,04,27,00,37,12.80
2018,04,27,00,38,12.80
2018,04,27,00,39,12.70
2018,04,27,00,40,12.70
2018,04,27,00,41,12.70
2018,04,27,00,42,12.70
2018,04,27,00,43,12.70
2018,04,27,00,44,12.70
2018,04,27,00,45,12.60
2018,04,27,00,46,12.60
2018,04,27,00,47,12.60
2018,04,27,00,48,12.60
2018,04,27,00,49,12.60
2018,04,27,00,50,12.60
2018,04,27,00,51,12.60
2018,04,27,00,52,12.60
2018,04,27,00,53,12.60
2018,04,27,00,54,12.60
2018,04,27,00,55,12.60
2018,04,27,00,56,12.60
2018,04,27,00,57,12.50
2018,04,27,00,58,12.50
2018,04,27,00,59,12.50
2018,04,27,01,00,12.50
2018,04,27,01,01,12.40
2018,04,27,01,02,12.40
2018,04,27,01,03,12.40
2018,04,27,01,04,12.40
2018,04,27,01,05,12.40
2018,04,27,01,06,12.40
2018,04,27,01,07,12.40
2018,04,27,01,08,12.40
2018,04,27,01,09,12.40
2018,04,27,01,10,12.40
2018,04,27,01,11,12.40
2018,04,27,01,12,12.40
2018,04,27,01,13,12.40
2018,04,27,01,14,12.40
2018,04,27,01,15,12.40
2018,04,27,01,16,12.40
2018,04,27,01,17,12.40
2018,04,27,01,18,12.40
2018,04,27,01,19,12.40
2018,04,27,01,20,12.40
2018,04,27,01,21,12.40
2018,04,27,01,22,12.40
2018,04,27,01,23,12.40
2018,04,27,01,24,12.40
2018,04,27,01,25,12.40
2018,04,27,01,26,12.30
2018,04,27,01,27,12.30
2018,04,27,01,28,12.30
2018,04,27,01,29,12.30
2018,04,27,01,30,12.30
2018,04,27,01,31,12.30
2018,04,27,01,32,12.20
2018,04,27,01,33,12.20
2018,04,27,01,34,12.20
2018,04,27,01,35,12.20
2018,04,27,01,36,12.10
2018,04,27,01,37,12.10
2018,04,27,01,38,12.10
2018,04,27,01,39,12.00
2018,04,27,01,40,12.00
2018,04,27,01,41,11.90
2018,04,27,01,42,11.90
2018,04,27,01,43,11.90
2018,04,27,01,44,11.80
2018,04,27,01,45,11.80
2018,04,27,01,46,11.80
2018,04,27,01,47,11.70
2018,04,27,01,48,11.70
2018,04,27,01,49,11.70
2018,04,27,01,50,11.70
2018,04,27,01,51,11.60
2018,04,27,01,52,11.60
2018,04,27,01,53,11.60
2018,04,27,01,54,11.60
2018,04,27,01,55,11.50
2018,04,27,01,56,11.50
2018,04,27,01,57,11.50
2018,04,27,01,58,11.50
2018,04,27,01,59,11.50
2018,04,27,02,00,11.40
2018,04,27,02,01,11.40
2018,04,27,02,02,11.40
2018,04,27,02,03,11.40
2018,04,27,02,04,11.40
2018,04,27,02,05,11.40
2018,04,27,02,06,11.40
2018,04,27,02,07,11.40
2018,04,27,02,08,11.40
2018,04,27,02,09,11.30
2018,04,27,02,10,11.30
2018,04,27,02,11,11.30
2018,04,27,02,12,11.30
2018,04,27,02,13,11.30
2018,04,27,02,14,11.30
2018,04,27,02,15,11.30
2018,04,27,02,16,11.30
2018,04,27,02,17,11.30
2018,04,27,02,18,11.30
2018,04,27,02,19,11.20
2018,04,27,02,20,11.20
2018,04,27,02,21,11.20
2018,04,27,02,22,11.20
2018,04,27,02,23,11.20
2018,04,27,02,24,11.20
2018,04,27,02,25,11.20
2018,04,27,02,26,11.20
2018,04,27,02,27,11.20
2018,04,27,02,28,11.20
2018,04,27,02,29,11.20
2018,04,27,02,30,11.20
2018,04,27,02,31,11.20
2018,04,27,02,32,11.20
2018,04,27,02,33,11.20
2018,04,27,02,34,11.20
2018,04,27,02,35,11.20
2018,04,27,02,36,11.20
2018,04,27,02,37,11.20
2018,04,27,02,38,11.20
2018,04,27,02,39,11.20
2018,04,27,02,40,11.20
2018,04,27,02,41,11.20
2018,04,27,02,42,11.20
2018,04,27,02,43,11.20
2018,04,27,02,44,11.20
2018,04,27,02,45,11.20
2018,04,27,02,46,11.20
2018,04,27,02,47,11.20
2018,04,27,02,48,11.20
2018,04,27,02,49,11.20
2018,04,27,02,50,11.20
2018,04,27,02,51,11.30
2018,04,27,02,52,11.30
2018,04,27,02,53,11.30
2018,04,27,02,54,11.20
2018,04,27,02,55,11.20
2018,04,27,02,56,11.20
2018,04,27,02,57,11.20
2018,04,27,02,58,11.20
2018,04,27,02,59,11.20
2018,04,27,03,00,11.20
2018,04,27,03,01,11.20
2018,04,27,03,02,11.20
2018,04,27,03,03,11.20
2018,04,27,03,04,11.20
2018,04,27,03,05,11.20
2018,04,27,03,06,11.20
2018,04,27,03,07,11.20
2018,04,27,03,08,11.20
2018,04,27,03,09,11.20
2018,04,27,03,10,11.20
2018,04,27,03,11,11.20
2018,04,27,03,12,11.20
2018,04,27,03,13,11.20
2018,04,27,03,14,11.20
2018,04,27,03,15,11.20
2018,04,27,03,16,11.20
2018,04,27,03,17,11.20
2018,04,27,03,18,11.10
2018,04,27,03,19,11.10
2018,04,27,03,20,11.10
2018,04,27,03,21,11.10
2018,04,27,03,22,11.10
2018,04,27,03,23,11.00
2018,04,27,03,24,11.00
2018,04,27,03,25,11.00
2018,04,27,03,26,10.90
2018,04,27,03,27,10.90
2018,04,27,03,28,10.90
2018,04,27,03,29,10.80
2018,04,27,03,30,10.80
2018,04,27,03,31,10.70
2018,04,27,03,32,10.70
2018,04,27,03,33,10.70
2018,04,27,03,34,10.60
2018,04,27,03,35,10.60
2018,04,27,03,36,10.60
2018,04,27,03,37,10.60
2018,04,27,03,38,10.50
2018,04,27,03,39,10.50
2018,04,27,03,40,10.50
2018,04,27,03,41,10.50
2018,04,27,03,42,10.40
2018,04,27,03,43,10.40
2018,04,27,03,44,10.40
2018,04,27,03,45,10.40
2018,04,27,03,46,10.40
2018,04,27,03,47,10.40
2018,04,27,03,48,10.30
2018,04,27,03,49,10.30
2018,04,27,03,50,10.30
2018,04,27,03,51,10.30
2018,04,27,03,52,10.30
2018,04,27,03,53,10.30
2018,04,27,03,54,10.20
2018,04,27,03,55,10.20
2018,04,27,03,56,10.20
2018,04,27,03,57,10.20
2018,04,27,03,58,10.20
2018,04,27,03,59,10.10
2018,04,27,04,00,10.10
2018,04,27,04,01,10.10
2018,04,27,04,02,10.10
2018,04,27,04,03,10.00
2018,04,27,04,04,10.00
2018,04,27,04,05,10.00
2018,04,27,04,06,9.90
2018,04,27,04,07,9.90
2018,04,27,04,08,9.90
2018,04,27,04,09,9.90
2018,04,27,04,10,9.80
2018,04,27,04,11,9.80
2018,04,27,04,12,9.80
2018,04,27,04,13,9.80
2018,04,27,04,14,9.80
2018,04,27,04,15,9.70
2018,04,27,04,16,9.70
2018,04,27,04,17,9.70
2018,04,27,04,18,9.70
2018,04,27,04,19,9.70
2018,04,27,04,20,9.60
2018,04,27,04,21,9.60
2018,04,27,04,22,9.60
2018,04,27,04,23,9.60
2018,04,27,04,24,9.60
2018,04,27,04,25,9.60
2018,04,27,04,26,9.60
2018,04,27,04,27,9.60
2018,04,27,04,28,9.60
2018,04,27,04,29,9.60
2018,04,27,04,30,9.60
2018,04,27,04,31,9.60
2018,04,27,04,32,9.70
2018,04,27,04,33,9.70
2018,04,27,04,34,9.70
2018,04,27,04,35,9.70
2018,04,27,04,36,9.70
2018,04,27,04,37,9.70
2018,04,27,04,38,9.70
2018,04,27,04,39,9.70
2018,04,27,04,40,9.70
2018,04,27,04,41,9.70
2018,04,27,04,42,9.70
2018,04,27,04,43,9.70
2018,04,27,04,44,9.70
2018,04,27,04,45,9.70
2018,04,27,04,46,9.70
2018,04,27,04,47,9.70
2018,04,27,04,48,9.80
2018,04,27,04,49,9.80
2018,04,27,04,50,9.80
2018,04,27,04,51,9.80
2018,04,27,04,52,9.80
2018,04,27,04,53,9.80
2018,04,27,04,54,9.80
2018,04,27,04,55,9.70
2018,04,27,04,56,9.70
2018,04,27,04,57,9.70
2018,04,27,04,58,9.70
2018,04,27,04,59,9.70
2018,04,27,05,00,9.60
2018,04,27,05,01,9.60
2018,04,27,05,02,9.60
2018,04,27,05,03,9.60
2018,04,27,05,04,9.60
2018,04,27,05,05,9.50
2018,04,27,05,06,9.50
2018,04,27,05,07,9.50
2018,04,27,05,08,9.50
2018,04,27,05,09,9.50
2018,04,27,05,10,9.50
2018,04,27,05,11,9.50
2018,04,27,05,12,9.50
2018,04,27,05,13,9.50
2018,04,27,05,14,9.50
2018,04,27,05,15,9.50
2018,04,27,05,16,9.40
2018,04,27,05,17,9.40
2018,04,27,05,18,9.40
2018,04,27,05,19,9.40
2018,04,27,05,20,9.40
2018,04,27,05,21,9.40
2018,04,27,05,22,9.30
2018,04,27,05,23,9.30
2018,04,27,05,24,9.30
2018,04,27,05,25,9.30
2018,04,27,05,26,9.30
2018,04,27,05,27,9.30
2018,04,27,05,28,9.30
2018,04,27,05,29,9.30
2018,04,27,05,30,9.30
2018,04,27,05,31,9.30
2018,04,27,05,32,9.30
2018,04,27,05,33,9.30
2018,04,27,05,34,9.30
2018,04,27,05,35,9.30
2018,04,27,05,36,9.30
2018,04,27,05,37,9.30
2018,04,27,05,38,9.30
2018,04,27,05,39,9.20
2018,04,27,05,40,9.30
2018,04,27,05,41,9.30
2018,04,27,05,42,9.30
2018,04,27,05,43,9.30
2018,04,27,05,44,9.30
2018,04,27,05,45,9.40
2018,04,27,05,46,9.40
2018,04,27,05,47,9.40
2018,04,27,05,48,9.40
2018,04,27,05,49,9.40
2018,04,27,05,50,9.40
2018,04,27,05,51,9.40
2018,04,27,05,52,9.40
2018,04,27,05,53,9.50
2018,04,27,05,54,9.50
2018,04,27,05,55,9.50
2018,04,27,05,56,9.60
2018,04,27,05,57,9.60
2018,04,27,05,58,9.60
2018,04,27,05,59,9.70
2018,04,27,06,00,9.70
2018,04,27,06,01,9.70
2018,04,27,06,02,9.60
2018,04,27,06,03,9.60
2018,04,27,06,04,9.60
2018,04,27,06,05,9.60
2018,04,27,06,06,9.80
2018,04,27,06,07,10.20
2018,04,27,06,08,10.70
2018,04,27,06,09,11.40
2018,04,27,06,10,12.00
2018,04,27,06,11,12.70
2018,04,27,06,12,13.20
2018,04,27,06,13,13.50
2018,04,27,06,14,13.70
2018,04,27,06,15,13.80
2018,04,27,06,16,13.80
2018,04,27,06,17,13.80
2018,04,27,06,18,13.70
2018,04,27,06,19,13.70
2018,04,27,06,20,13.70
2018,04,27,06,21,13.60
2018,04,27,06,22,13.60
2018,04,27,06,23,13.40
2018,04,27,06,24,13.30
2018,04,27,06,25,13.40
2018,04,27,06,26,13.70
2018,04,27,06,27,13.90
2018,04,27,06,28,14.00
2018,04,27,06,29,14.10
2018,04,27,06,30,14.10
2018,04,27,06,31,14.20
2018,04,27,06,32,14.40
2018,04,27,06,33,14.60
2018,04,27,06,34,14.80
2018,04,27,06,35,14.90
2018,04,27,06,36,14.80
2018,04,27,06,37,14.80
2018,04,27,06,38,14.70
2018,04,27,06,39,14.50
2018,04,27,06,40,14.40
2018,04,27,06,41,14.30
2018,04,27,06,42,14.30
2018,04,27,06,43,14.20
2018,04,27,06,44,14.20
2018,04,27,06,45,14.10
2018,04,27,06,46,14.00
2018,04,27,06,47,13.90
2018,04,27,06,48,13.80
2018,04,27,06,49,13.70
2018,04,27,06,50,13.50
2018,04,27,06,51,13.30
2018,04,27,06,52,13.00
2018,04,27,06,53,12.90
2018,04,27,06,54,12.80
2018,04,27,06,55,12.80
2018,04,27,06,56,12.70
2018,04,27,06,57,12.70
2018,04,27,06,58,12.60
2018,04,27,06,59,12.50
2018,04,27,07,00,12.50
2018,04,27,07,01,12.40
2018,04,27,07,02,12.40
2018,04,27,07,03,12.30
2018,04,27,07,04,12.30
2018,04,27,07,05,12.30
2018,04,27,07,06,12.20
2018,04,27,07,07,12.20
2018,04,27,07,08,12.20
2018,04,27,07,09,12.20
2018,04,27,07,10,12.30
2018,04,27,07,11,12.40
2018,04,27,07,12,12.40
2018,04,27,07,13,12.50
2018,04,27,07,14,12.50
2018,04,27,07,15,12.50
2018,04,27,07,16,12.50
2018,04,27,07,17,12.50
2018,04,27,07,18,12.50
2018,04,27,07,19,12.50
2018,04,27,07,20,12.50
2018,04,27,07,21,12.60
2018,04,27,07,22,12.70
2018,04,27,07,23,12.70
2018,04,27,07,24,12.70
2018,04,27,07,25,12.70
2018,04,27,07,26,12.70
2018,04,27,07,27,12.70
2018,04,27,07,28,12.70
2018,04,27,07,29,12.70
2018,04,27,07,30,12.70
2018,04,27,07,31,12.70
2018,04,27,07,32,12.70
2018,04,27,07,33,12.60
2018,04,27,07,34,12.60
2018,04,27,07,35,12.60
2018,04,27,07,36,12.60
2018,04,27,07,37,12.60
2018,04,27,07,38,12.50
2018,04,27,07,39,12.50
2018,04,27,07,40,12.40
2018,04,27,07,41,12.40
2018,04,27,07,42,12.40
2018,04,27,07,43,12.30
2018,04,27,07,44,12.30
2018,04,27,07,45,12.30
2018,04,27,07,46,12.20
2018,04,27,07,47,12.20
2018,04,27,07,48,12.20
2018,04,27,07,49,12.40
2018,04,27,07,50,12.40
2018,04,27,07,51,12.50
2018,04,27,07,52,12.50
2018,04,27,07,53,12.60
2018,04,27,07,54,12.60
2018,04,27,07,55,12.60
2018,04,27,07,56,12.80
2018,04,27,07,57,12.80
2018,04,27,07,58,12.90
2018,04,27,07,59,12.90
2018,04,27,08,00,12.90
2018,04,27,08,01,13.00
2018,04,27,08,02,13.10
2018,04,27,08,03,13.10
2018,04,27,08,04,13.20
2018,04,27,08,05,13.20
2018,04,27,08,06,13.20
2018,04,27,08,07,13.30
2018,04,27,08,08,13.50
2018,04,27,08,09,13.60
2018,04,27,08,10,13.70
2018,04,27,08,11,13.70
2018,04,27,08,12,13.70
2018,04,27,08,13,13.60
2018,04,27,08,14,13.50
2018,04,27,08,15,13.50
2018,04,27,08,16,13.40
2018,04,27,08,17,13.30
2018,04,27,08,18,13.40
2018,04,27,08,19,13.40
2018,04,27,08,20,13.50
2018,04,27,08,21,13.60
2018,04,27,08,22,13.70
2018,04,27,08,23,13.70
2018,04,27,08,24,13.70
2018,04,27,08,25,13.60
2018,04,27,08,26,13.50
2018,04,27,08,27,13.40
2018,04,27,08,28,13.30
2018,04,27,08,29,13.30
2018,04,27,08,30,13.20
2018,04,27,08,31,13.20
2018,04,27,08,32,13.20
2018,04,27,08,33,13.10
2018,04,27,08,34,13.10
2018,04,27,08,35,13.00
2018,04,27,08,36,13.00
2018,04,27,08,37,12.90
2018,04,27,08,38,12.90
2018,04,27,08,39,12.90
2018,04,27,08,40,12.90
2018,04,27,08,41,12.90
2018,04,27,08,42,12.90
2018,04,27,08,43,12.90
2018,04,27,08,44,12.90
2018,04,27,08,45,12.90
2018,04,27,08,46,12.90
2018,04,27,08,47,12.90
2018,04,27,08,48,12.90
2018,04,27,08,49,12.90
2018,04,27,08,50,12.90
2018,04,27,08,51,13.00
2018,04,27,08,52,13.00
2018,04,27,08,53,13.10
2018,04,27,08,54,13.10
2018,04,27,08,55,13.20
2018,04,27,08,56,13.20
2018,04,27,08,57,13.30
2018,04,27,08,58,13.40
2018,04,27,08,59,13.60
2018,04,27,09,00,13.70
2018,04,27,09,01,13.80
2018,04,27,09,02,13.90
2018,04,27,09,03,14.10
2018,04,27,09,04,14.10
2018,04,27,09,05,14.20
2018,04,27,09,06,14.30
2018,04,27,09,07,14.40
2018,04,27,09,08,14.50
2018,04,27,09,09,14.50
2018,04,27,09,10,14.60
2018,04,27,09,11,14.60
2018,04,27,09,12,14.70
2018,04,27,09,13,14.70
2018,04,27,09,14,14.90
2018,04,27,09,15,15.00
2018,04,27,09,16,15.30
2018,04,27,09,17,15.50
2018,04,27,09,18,15.70
2018,04,27,09,19,15.80
2018,04,27,09,20,15.90
2018,04,27,09,21,15.90
2018,04,27,09,22,15.90
2018,04,27,09,23,15.90
2018,04,27,09,24,15.80
2018,04,27,09,25,15.80
2018,04,27,09,26,15.80
2018,04,27,09,27,15.70
2018,04,27,09,28,15.70
2018,04,27,09,29,15.60
2018,04,27,09,30,15.60
2018,04,27,09,31,15.70
2018,04,27,09,32,15.70
2018,04,27,09,33,15.70
2018,04,27,09,34,15.70
2018,04,27,09,35,15.60
2018,04,27,09,36,15.60
2018,04,27,09,37,15.60
2018,04,27,09,38,15.60
2018,04,27,09,39,15.60
2018,04,27,09,40,15.60
2018,04,27,09,41,15.60
2018,04,27,09,42,15.60
2018,04,27,09,43,15.60
2018,04,27,09,44,15.80
2018,04,27,09,45,15.90
2018,04,27,09,46,15.90
2018,04,27,09,47,15.80
2018,04,27,09,48,15.80
2018,04,27,09,49,15.70
2018,04,27,09,50,15.60
2018,04,27,09,51,15.60
2018,04,27,09,52,15.50
2018,04,27,09,53,15.50
2018,04,27,09,54,15.40
2018,04,27,09,55,15.40
2018,04,27,09,56,15.50
2018,04,27,09,57,15.60
2018,04,27,09,58,15.70
2018,04,27,09,59,15.90
2018,04,27,10,00,16.00
2018,04,27,10,01,16.10
2018,04,27,10,02,16.20
2018,04,27,10,03,16.20
2018,04,27,10,04,16.20
2018,04,27,10,05,16.30
2018,04,27,10,06,16.30
2018,04,27,10,07,16.40
2018,04,27,10,08,16.40
2018,04,27,10,09,16.40
2018,04,27,10,10,16.30
2018,04,27,10,11,16.30
2018,04,27,10,12,16.20
2018,04,27,10,13,16.20
2018,04,27,10,14,16.20
2018,04,27,10,15,16.20
2018,04,27,10,16,16.10
2018,04,27,10,17,16.10
2018,04,27,10,18,16.00
2018,04,27,10,19,16.00
2018,04,27,10,20,15.90
2018,04,27,10,21,15.90
2018,04,27,10,22,15.90
2018,04,27,10,23,16.00
2018,04,27,10,24,16.10
2018,04,27,10,25,16.30
2018,04,27,10,26,16.50
2018,04,27,10,27,16.60
2018,04,27,10,28,16.70
2018,04,27,10,29,16.80
2018,04,27,10,30,16.80
2018,04,27,10,31,16.80
2018,04,27,10,32,16.80
2018,04,27,10,33,16.80
2018,04,27,10,34,16.80
2018,04,27,10,35,16.80
2018,04,27,10,36,16.80
2018,04,27,10,37,16.70
2018,04,27,10,38,16.60
2018,04,27,10,39,16.40
2018,04,27,10,40,16.40
2018,04,27,10,41,16.30
2018,04,27,10,42,16.40
2018,04,27,10,43,16.50
2018,04,27,10,44,16.70
2018,04,27,10,45,16.80
2018,04,27,10,46,17.00
2018,04,27,10,47,17.10
2018,04,27,10,48,17.30
2018,04,27,10,49,17.50
2018,04,27,10,50,17.60
2018,04,27,10,51,17.70
2018,04,27,10,52,17.70
2018,04,27,10,53,17.70
2018,04,27,10,54,17.70
2018,04,27,10,55,17.70
2018,04,27,10,56,17.70
2018,04,27,10,57,17.70
2018,04,27,10,58,17.70
2018,04,27,10,59,17.60
2018,04,27,11,00,17.60
2018,04,27,11,01,17.60
2018,04,27,11,02,17.50
2018,04,27,11,03,17.40
2018,04,27,11,04,17.30
2018,04,27,11,05,17.30
2018,04,27,11,06,17.30
2018,04,27,11,07,17.30
2018,04,27,11,08,17.30
2018,04,27,11,09,17.30
2018,04,27,11,10,17.40
2018,04,27,11,11,17.50
2018,04,27,11,12,17.60
2018,04,27,11,13,17.70
2018,04,27,11,14,17.80
2018,04,27,11,15,18.00
2018,04,27,11,16,18.10
2018,04,27,11,17,18.30
2018,04,27,11,18,18.40
2018,04,27,11,19,18.60
2018,04,27,11,20,18.80
2018,04,27,11,21,18.90
2018,04,27,11,22,18.90
2018,04,27,11,23,19.00
2018,04,27,11,24,19.00
2018,04,27,11,25,19.00
2018,04,27,11,26,19.10
2018,04,27,11,27,19.10
2018,04,27,11,28,19.10
2018,04,27,11,29,19.00
2018,04,27,11,30,18.90
2018,04,27,11,31,18.80
2018,04,27,11,32,18.60
2018,04,27,11,33,18.50
2018,04,27,11,34,18.50
2018,04,27,11,35,18.40
2018,04,27,11,36,18.50
2018,04,27,11,37,18.70
2018,04,27,11,38,19.00
2018,04,27,11,39,19.10
2018,04,27,11,40,19.10
2018,04,27,11,41,19.10
2018,04,27,11,42,19.00
2018,04,27,11,43,19.00
2018,04,27,11,44,18.90
2018,04,27,11,45,18.90
2018,04,27,11,46,18.80
2018,04,27,11,47,18.70
2018,04,27,11,48,18.60
2018,04,27,11,49,18.60
2018,04,27,11,50,18.60
2018,04,27,11,51,18.60
2018,04,27,11,52,18.50
2018,04,27,11,53,18.50
2018,04,27,11,54,18.60
2018,04,27,11,55,18.70
2018,04,27,11,56,18.70
2018,04,27,11,57,18.80
2018,04,27,11,58,18.90
2018,04,27,11,59,19.00
2018,04,27,12,00,19.00
2018,04,27,12,01,19.10
2018,04,27,12,02,19.10
2018,04,27,12,03,19.20
2018,04,27,12,04,19.20
2018,04,27,12,05,19.10
2018,04,27,12,06,19.10
2018,04,27,12,07,18.90
2018,04,27,12,08,18.80
2018,04,27,12,09,18.70
2018,04,27,12,10,18.60
2018,04,27,12,11,18.40
2018,04,27,12,12,18.30
2018,04,27,12,13,18.20
2018,04,27,12,14,18.10
2018,04,27,12,15,18.20
2018,04,27,12,16,18.30
2018,04,27,12,17,18.40
2018,04,27,12,18,18.60
2018,04,27,12,19,18.90
2018,04,27,12,20,19.00
2018,04,27,12,21,19.00
2018,04,27,12,22,19.00
2018,04,27,12,23,18.90
2018,04,27,12,24,18.90
2018,04,27,12,25,18.80
2018,04,27,12,26,18.70
2018,04,27,12,27,18.70
2018,04,27,12,28,18.90
2018,04,27,12,29,18.90
2018,04,27,12,30,18.90
2018,04,27,12,31,18.90
2018,04,27,12,32,19.00
2018,04,27,12,33,19.00
2018,04,27,12,34,19.00
2018,04,27,12,35,19.00
2018,04,27,12,36,18.90
2018,04,27,12,37,18.90
2018,04,27,12,38,18.90
2018,04,27,12,39,18.80
2018,04,27,12,40,18.70
2018,04,27,12,41,18.60
2018,04,27,12,42,18.60
2018,04,27,12,43,18.60
2018,04,27,12,44,18.60
2018,04,27,12,45,18.70
2018,04,27,12,46,18.70
2018,04,27,12,47,18.80
2018,04,27,12,48,18.90
2018,04,27,12,49,19.10
2018,04,27,12,50,19.30
2018,04,27,12,51,19.40
2018,04,27,12,52,19.40
2018,04,27,12,53,19.50
2018,04,27,12,54,19.70
2018,04,27,12,55,19.70
2018,04,27,12,56,19.60
2018,04,27,12,57,19.50
2018,04,27,12,58,19.40
2018,04,27,12,59,19.30
2018,04,27,13,00,19.30
2018,04,27,13,01,19.40
2018,04,27,13,02,19.40
2018,04,27,13,03,19.30
2018,04,27,13,04,19.20
2018,04,27,13,05,19.10
2018,04,27,13,06,18.90
2018,04,27,13,07,18.80
2018,04,27,13,08,18.80
2018,04,27,13,09,18.90
2018,04,27,13,10,18.90
2018,04,27,13,11,18.90
2018,04,27,13,12,18.80
2018,04,27,13,13,18.80
2018,04,27,13,14,18.70
2018,04,27,13,15,18.70
2018,04,27,13,16,18.60
2018,04,27,13,17,18.50
2018,04,27,13,18,18.40
2018,04,27,13,19,18.40
2018,04,27,13,20,18.40
2018,04,27,13,21,18.40
2018,04,27,13,22,18.40
2018,04,27,13,23,18.30
2018,04,27,13,24,18.20
2018,04,27,13,25,18.10
2018,04,27,13,26,18.00
2018,04,27,13,27,18.00
2018,04,27,13,28,18.00
2018,04,27,13,29,18.10
2018,04,27,13,30,18.10
2018,04,27,13,31,18.10
2018,04,27,13,32,18.20
2018,04,27,13,33,18.20
2018,04,27,13,34,18.20
2018,04,27,13,35,18.20
2018,04,27,13,36,18.20
2018,04,27,13,37,18.20
2018,04,27,13,38,18.20
2018,04,27,13,39,18.20
2018,04,27,13,40,18.30
2018,04,27,13,41,18.40
2018,04,27,13,42,18.50
2018,04,27,13,43,18.70
2018,04,27,13,44,18.80
2018,04,27,13,45,18.90
2018,04,27,13,46,18.90
2018,04,27,13,47,18.90
2018,04,27,13,48,18.90
2018,04,27,13,49,18.80
2018,04,27,13,50,18.70
2018,04,27,13,51,18.70
2018,04,27,13,52,18.60
2018,04,27,13,53,18.50
2018,04,27,13,54,18.40
2018,04,27,13,55,18.40
2018,04,27,13,56,18.50
2018,04,27,13,57,18.60
2018,04,27,13,58,18.80
2018,04,27,13,59,19.00
2018,04,27,14,00,19.00
2018,04,27,14,01,19.10
2018,04,27,14,02,19.10
2018,04,27,14,03,19.20
2018,04,27,14,04,19.20
2018,04,27,14,05,19.20
2018,04,27,14,06,19.30
2018,04,27,14,07,19.30
2018,04,27,14,08,19.30
2018,04,27,14,09,19.30
2018,04,27,14,10,19.30
2018,04,27,14,11,19.30
2018,04,27,14,12,19.30
2018,04,27,14,13,19.20
2018,04,27,14,14,19.10
2018,04,27,14,15,19.10
2018,04,27,14,16,19.10
2018,04,27,14,17,19.10
2018,04,27,14,18,19.10
2018,04,27,14,19,19.10
2018,04,27,14,20,19.20
2018,04,27,14,21,19.20
2018,04,27,14,22,19.20
2018,04,27,14,23,19.20
2018,04,27,14,24,19.10
2018,04,27,14,25,19.10
2018,04,27,14,26,19.10
2018,04,27,14,27,19.10
2018,04,27,14,28,19.10
2018,04,27,14,29,19.10
2018,04,27,14,30,19.10
2018,04,27,14,31,19.00
2018,04,27,14,32,19.00
2018,04,27,14,33,18.90
2018,04,27,14,34,19.00
2018,04,27,14,35,19.00
2018,04,27,14,36,18.90
2018,04,27,14,37,18.90
2018,04,27,14,38,18.90
2018,04,27,14,39,18.80
2018,04,27,14,40,18.80
2018,04,27,14,41,18.70
2018,04,27,14,42,18.70
2018,04,27,14,43,18.70
2018,04,27,14,44,18.70
2018,04,27,14,45,18.70
2018,04,27,14,46,18.80
2018,04,27,14,47,18.80
2018,04,27,14,48,18.90
2018,04,27,14,49,18.90
2018,04,27,14,50,18.90
2018,04,27,14,51,18.90
2018,04,27,14,52,18.90
2018,04,27,14,53,18.80
2018,04,27,14,54,18.80
2018,04,27,14,55,18.80
2018,04,27,14,56,18.80
2018,04,27,14,57,18.70
2018,04,27,14,58,18.70
2018,04,27,14,59,18.70
2018,04,27,15,00,18.60
2018,04,27,15,01,18.60
2018,04,27,15,02,18.50
2018,04,27,15,03,18.40
2018,04,27,15,04,18.40
2018,04,27,15,05,18.30
2018,04,27,15,06,18.30
2018,04,27,15,07,18.30
2018,04,27,15,08,18.40
2018,04,27,15,09,18.40
2018,04,27,15,10,18.40
2018,04,27,15,11,18.20
2018,04,27,15,12,18.10
2018,04,27,15,13,18.10
2018,04,27,15,14,18.10
2018,04,27,15,15,18.10
2018,04,27,15,16,18.20
2018,04,27,15,17,18.20
2018,04,27,15,18,18.20
2018,04,27,15,19,18.20
2018,04,27,15,20,18.30
2018,04,27,15,21,18.30
2018,04,27,15,22,18.40
2018,04,27,15,23,18.60
2018,04,27,15,24,18.80
2018,04,27,15,25,19.10
2018,04,27,15,26,19.30
2018,04,27,15,27,19.30
2018,04,27,15,28,19.30
2018,04,27,15,29,19.10
2018,04,27,15,30,19.00
2018,04,27,15,31,18.90
2018,04,27,15,32,18.80
2018,04,27,15,33,18.70
2018,04,27,15,34,18.60
2018,04,27,15,35,18.60
2018,04,27,15,36,18.60
2018,04,27,15,37,18.60
2018,04,27,15,38,18.50
2018,04,27,15,39,18.50
2018,04,27,15,40,18.40
2018,04,27,15,41,18.30
2018,04,27,15,42,18.30
2018,04,27,15,43,18.20
2018,04,27,15,44,18.20
2018,04,27,15,45,18.10
2018,04,27,15,46,18.10
2018,04,27,15,47,18.10
2018,04,27,15,48,18.10
2018,04,27,15,49,18.00
2018,04,27,15,50,17.90
2018,04,27,15,51,17.90
2018,04,27,15,52,17.80
2018,04,27,15,53,17.90
2018,04,27,15,54,17.90
2018,04,27,15,55,18.10
2018,04,27,15,56,18.30
2018,04,27,15,57,18.40
2018,04,27,15,58,18.40
2018,04,27,15,59,18.40
2018,04,27,16,00,18.30
2018,04,27,16,01,18.20
2018,04,27,16,02,18.10
2018,04,27,16,03,18.00
2018,04,27,16,04,18.00
2018,04,27,16,05,17.90
2018,04,27,16,06,17.80
2018,04,27,16,07,17.70
2018,04,27,16,08,17.70
2018,04,27,16,09,17.80
2018,04,27,16,10,17.90
2018,04,27,16,11,18.00
2018,04,27,16,12,18.10
2018,04,27,16,13,18.10
2018,04,27,16,14,18.10
2018,04,27,16,15,18.00
2018,04,27,16,16,17.90
2018,04,27,16,17,17.80
2018,04,27,16,18,17.80
2018,04,27,16,19,17.90
2018,04,27,16,20,17.90
2018,04,27,16,21,17.90
2018,04,27,16,22,17.90
2018,04,27,16,23,17.80
2018,04,27,16,24,17.80
2018,04,27,16,25,17.80
2018,04,27,16,26,17.70
2018,04,27,16,27,17.70
2018,04,27,16,28,17.70
2018,04,27,16,29,17.70
2018,04,27,16,30,17.70
2018,04,27,16,31,17.70
2018,04,27,16,32,17.70
2018,04,27,16,33,17.70
2018,04,27,16,34,17.70
2018,04,27,16,35,17.70
2018,04,27,16,36,17.70
2018,04,27,16,37,17.80
2018,04,27,16,38,17.80
2018,04,27,16,39,17.80
2018,04,27,16,40,17.80
2018,04,27,16,41,17.90
2018,04,27,16,42,17.90
2018,04,27,16,43,18.00
2018,04,27,16,44,18.00
2018,04,27,16,45,18.00
2018,04,27,16,46,17.90
2018,04,27,16,47,17.90
2018,04,27,16,48,17.90
2018,04,27,16,49,17.90
2018,04,27,16,50,17.80
2018,04,27,16,51,17.80
2018,04,27,16,52,17.80
2018,04,27,16,53,17.90
2018,04,27,16,54,17.90
2018,04,27,16,55,17.90
2018,04,27,16,56,18.00
2018,04,27,16,57,18.00
2018,04,27,16,58,17.90
2018,04,27,16,59,17.80
2018,04,27,17,00,17.70
2018,04,27,17,01,17.70
2018,04,27,17,02,17.80
2018,04,27,17,03,17.80
2018,04,27,17,04,17.90
2018,04,27,17,05,17.90
2018,04,27,17,06,17.90
2018,04,27,17,07,17.90
2018,04,27,17,08,17.90
2018,04,27,17,09,17.80
2018,04,27,17,10,17.70
2018,04,27,17,11,17.70
2018,04,27,17,12,17.70
2018,04,27,17,13,17.70
2018,04,27,17,14,17.70
2018,04,27,17,15,17.70
2018,04,27,17,16,17.60
2018,04,27,17,17,17.70
2018,04,27,17,18,17.60
2018,04,27,17,19,17.50
2018,04,27,17,20,17.50
2018,04,27,17,21,17.50
2018,04,27,17,22,17.60
2018,04,27,17,23,17.60
2018,04,27,17,24,17.60